星链-32412 (STARLINK-32412)

导读 | 豆包AI

STARLINK-32412(星链-32412)是美国SpaceX星链项目的低轨通信卫星,于2024年10月26日发射,属于第三代星链卫星群。它运行在近地轨道,为全球提供高速低延迟互联网服务,助力填补偏远地区网络覆盖空白,完善全球卫星互联网组网,目前该卫星保持在轨运行状态,是星链星座规模扩张的重要组成部分。

基本信息
目录编号:
61680
目录名称:
STARLINK-32412
国际标识:
2024-193V
轨道中心:
EARTH
卫星名称:
星链-32412
卫星全名:
星链-32412 (STARLINK-32412)
卫星状态:
在轨 (已飞行552 天)
发射日期:
2024-10-26 UTC
国别 :
美国 (US)
星等 :
--
轨道信息
数据来源 国际轨道数据 AOE轨道数据
星历时间 2026-04-30T22:51:44+0800
12小时前
查看轨道信息
2026-04-25T08:00:00+0800
6天前
查看轨道信息
半长轴 6853.367km 6853.404km
偏心率 0.0000956 0.0001554
轨道倾角 53.159° 53.161°
近地点辐角 93.725° 61.830°
升交点赤经 210.051° 236.154°
平近点角 266.386° 286.170°
近地点 474.574km 474.201km
远地点 475.886km 476.333km
周期 94.106分钟 94.106分钟
每日圈数 15.301951 15.301829
详细信息
固有亮度:
5
最大亮度:
2.5
卫星平台:
Starlink V1.0
覆盖范围:
全球
运营商:
太空探索技术公司
运营商所在国:
美国
制造商(研发单位):
太空探索技术公司
制造商所在国:
美国
使用方式:
暂无
卫星简介
Starlink 计划是 SpaceX 推出的全球卫星互联网项目,通过发射低轨道卫星,为全球尤其是偏远地区提供高速、低延迟的互联网服务。自 2019 年起,Starlink 已部署数千颗卫星,旨在缩小全球数字鸿沟,推动互联网普及。该项目还为军事、航空等行业提供通信支持,带来广泛经济效益。
2D轨道图
3D轨道图
轨道高度分析图
轨道倾角分析图
轨道综合分析图
查看轨道综合分析图